Simultaneous Nadir Overpasses (SNOs) Predictions

Prediction of SNOs between AQUA and GOES-15 Satellite Orbit:

Table of predicted SNOs for the next 14.0 days since TLE Epoch: 3/4/2016
Index Date Time (AQUA) AQUA Lat,Lon GOES-15 Lat,Lon Distance(km) Time Diff (sec)
1 03/04/2016 22:29:17 0.36,-133.43 0.01,-134.99 177.77 80
2 03/05/2016 10:50:32 0.78,-138.57 -0.01,-134.99 408.31 80
3 03/07/2016 10:38:22 0.13,-135.62 -0.01,-134.92 79.43 80
4 03/09/2016 10:26:11 -0.47,-132.66 -0.01,-134.85 248.94 80
5 03/09/2016 22:47:35 -0.66,-137.85 0.01,-134.81 345.24 80
6 03/11/2016 22:35:24 -0.04,-134.89 0.01,-134.74 17.71 80
7 03/13/2016 22:23:13 0.58,-131.93 0.01,-134.65 309.60 80
8 03/14/2016 10:44:29 0.49,-137.09 -0.01,-134.64 277.25 80
9 03/16/2016 10:32:17 -0.09,-134.12 -0.00,-134.55 49.39 80
10 03/18/2016 10:20:05 -0.68,-131.15 -0.00,-134.46 375.75 80




NCC Satellite Simultaneous Nadir Overpasses (SNOs) Prediction Service
